Athens, OH

4:23 PM EDT on April 21, 2018 (GMT -0400)
Ohio University

Weather History for KUNI - January, 2013

Change the Weather History Date:

Thursday, January 10, 2013

  Actual Average (KPKB) Record (KPKB)
Temperature  
Mean Temperature 33 °F -  
Max Temperature 43 °F 35 °F 64 °F (1939)
Min Temperature 23 °F 20 °F -6 °F (1982)
Degree Days  
Heating Degree Days 32    
Moisture  
Dew Point 30 °F    
Average Humidity 85    
Maximum Humidity 98    
Minimum Humidity 67    
Precipitation  
Precipitation 0.00 in - - ()
Sea Level Pressure  
Sea Level Pressure 30.43 in    
Wind  
Wind Speed 2 mph (ENE)    
Max Wind Speed 9 mph    
Max Gust Speed -    
Visibility 7 miles    
Events Fog    
Averages and records for this station are not official NWS values.
T = Trace of Precipitation, MM = Missing Value Source: NWS Daily Summary

Daily Weather History Graph

Daily Weather History Graph

Search for Another Location

Airport or City:

Astronomy

Jan. 10, 2013 Rise Set
Actual Time 7:48 AM EST 5:25 PM EST
Civil Twilight 7:18 AM EST 5:54 PM EST
Nautical Twilight 6:45 AM EST 6:28 PM EST
Astronomical Twilight 6:13 AM EST 7:00 PM EST
Moon 6:26 AM EST (1/10) 4:31 PM EST (1/10)
Length of Visible Light 10h 36m
Length of Day
9h 37m
Waning Crescent, 2% of the Moon is Illuminated
Jan 10
Waning Crescent
Jan 11
New
Jan 18
First Quarter
Jan 26
Full
Feb 3
Last Quarter

Hourly Weather History & Observations

Time (EST) Temp. Windchill Dew Point Humidity Pressure Visibility Wind Dir Wind Speed Gust Speed Precip Events Conditions
12:15 AM 28.2 °F - 27.5 °F 97% 30.51 in 0.2 mi Calm Calm - N/A Fog Light Freezing Fog
12:35 AM 27.0 °F - 26.2 °F 97% 30.51 in 0.2 mi Calm Calm - N/A Fog Light Freezing Fog
12:55 AM 26.2 °F - 25.5 °F 97% 30.52 in 0.2 mi Calm Calm - N/A Fog Light Freezing Fog
1:15 AM 26.8 °F - 26.1 °F 97% 30.53 in 0.2 mi Calm Calm - N/A Fog Light Freezing Fog
1:35 AM 26.1 °F - 25.5 °F 98% 30.53 in 0.2 mi Calm Calm - N/A Fog Light Freezing Fog
3:35 AM 25.0 °F - 23.9 °F 96% 30.52 in 0.2 mi Calm Calm - N/A Fog Light Freezing Fog
3:55 AM 24.6 °F - 23.5 °F 96% 30.51 in 0.2 mi Calm Calm - N/A Fog Light Freezing Fog
4:15 AM 24.4 °F - 23.4 °F 96% 30.51 in 0.2 mi Calm Calm - N/A Fog Light Freezing Fog
4:35 AM 24.3 °F - 23.0 °F 95% 30.50 in 0.2 mi Calm Calm - N/A Fog Light Freezing Fog
4:55 AM 24.1 °F - 23.0 °F 96% 30.50 in 0.2 mi Calm Calm - N/A Fog Light Freezing Fog
5:15 AM 23.7 °F - 22.6 °F 96% 30.50 in 0.2 mi Calm Calm - N/A Fog Light Freezing Fog
5:35 AM 23.7 °F - 22.6 °F 96% 30.50 in 0.2 mi Calm Calm - N/A Fog Light Freezing Fog
5:55 AM 23.5 °F - 22.5 °F 96% 30.51 in 0.2 mi Calm Calm - N/A Fog Light Freezing Fog
6:15 AM 23.7 °F - 22.6 °F 96% 30.50 in 0.2 mi Calm Calm - N/A Fog Light Freezing Fog
6:35 AM 24.3 °F - 23.0 °F 95% 30.52 in 0.2 mi Calm Calm - N/A Fog Light Freezing Fog
6:55 AM 24.4 °F - 23.2 °F 95% 30.52 in 0.2 mi Calm Calm - N/A Fog Light Freezing Fog
7:35 AM 25.2 °F - 23.9 °F 95% 30.54 in 4.0 mi Calm Calm - N/A   Scattered Clouds
7:55 AM 25.2 °F - 24.1 °F 96% 30.54 in 4.0 mi Calm Calm - N/A   Scattered Clouds
8:15 AM 25.7 °F - 24.8 °F 96% 30.54 in 4.0 mi Calm Calm - N/A   Scattered Clouds
8:35 AM 25.7 °F - 24.8 °F 96% 30.55 in 5.0 mi Calm Calm - N/A   Clear
8:55 AM 26.6 °F - 25.7 °F 96% 30.56 in 5.0 mi Calm Calm - N/A   Clear
9:15 AM 27.0 °F - 26.1 °F 96% 30.56 in 5.0 mi Calm Calm - N/A   Clear
9:35 AM 28.4 °F 24.6 °F 27.5 °F 96% 30.55 in 5.0 mi ENE 3.5 mph - N/A   Clear
9:55 AM 28.9 °F - 28.2 °F 97% 30.55 in 7.0 mi Calm Calm - N/A   Clear
10:15 AM 29.7 °F - 28.9 °F 97% 30.56 in 7.0 mi Calm Calm - N/A   Clear
10:35 AM 30.9 °F - 30.2 °F 97% 30.55 in 7.0 mi Calm Calm - N/A   Clear
10:55 AM 31.3 °F - 30.6 °F 97% 30.55 in 7.0 mi Calm Calm - N/A   Clear
11:15 AM 32.0 °F - 31.1 °F 96% 30.55 in 7.0 mi Calm Calm - N/A   Clear
11:35 AM 33.1 °F 30.0 °F 32.4 °F 97% 30.53 in 10.0 mi NNE 3.5 mph - N/A   Clear
11:55 AM 34.5 °F - 33.6 °F 97% 30.52 in 10.0 mi Calm Calm - N/A   Clear
12:15 PM 35.8 °F - 34.9 °F 97% 30.51 in 10.0 mi Calm Calm - N/A   Clear
12:35 PM 36.5 °F 32.7 °F 35.6 °F 97% 30.48 in 10.0 mi ENE 4.6 mph - N/A   Clear
12:55 PM 37.4 °F - 36.1 °F 95% 30.49 in 10.0 mi Calm Calm - N/A   Clear
1:15 PM 37.9 °F 35.5 °F 36.5 °F 95% 30.48 in 10.0 mi NE 3.5 mph - N/A   Clear
1:35 PM 38.8 °F 34.6 °F 37.0 °F 93% 30.46 in 10.0 mi NE 5.8 mph - N/A   Clear
1:55 PM 39.6 °F 33.5 °F 36.7 °F 89% 30.44 in 10.0 mi ENE 9.2 mph - N/A   Clear
2:15 PM 40.5 °F 34.6 °F 34.3 °F 79% 30.44 in 10.0 mi NE 9.2 mph - N/A   Clear
2:35 PM 41.2 °F 36.6 °F 33.6 °F 74% 30.44 in 10.0 mi NE 6.9 mph - N/A   Clear
3:15 PM 42.4 °F 38.8 °F 32.4 °F 68% 30.42 in 10.0 mi East 5.8 mph - N/A   Clear
3:35 PM 43.0 °F 38.2 °F 32.5 °F 67% 30.40 in 10.0 mi ENE 8.1 mph - N/A   Clear
3:55 PM 42.8 °F 39.3 °F 32.9 °F 68% 30.39 in 10.0 mi ENE 5.8 mph - N/A   Scattered Clouds
4:15 PM 43.0 °F 39.5 °F 33.3 °F 69% 30.38 in 10.0 mi NE 5.8 mph - N/A   Overcast
4:35 PM 42.3 °F 38.6 °F 33.8 °F 72% 30.39 in 10.0 mi ENE 5.8 mph - N/A   Overcast
4:55 PM 42.3 °F 39.4 °F 33.6 °F 71% 30.39 in 10.0 mi ENE 4.6 mph - N/A   Overcast
5:15 PM 41.9 °F 39.0 °F 33.4 °F 72% 30.38 in 10.0 mi ENE 4.6 mph - N/A   Overcast
5:35 PM 41.5 °F 37.8 °F 33.3 °F 72% 30.37 in 10.0 mi ENE 5.8 mph - N/A   Overcast
5:55 PM 41.7 °F 39.8 °F 32.0 °F 68% 30.37 in 10.0 mi ENE 3.5 mph - N/A   Mostly Cloudy
6:15 PM 41.0 °F 38.0 °F 32.7 °F 72% 30.35 in 10.0 mi ENE 4.6 mph - N/A   Mostly Cloudy
6:35 PM 41.4 °F 38.4 °F 32.2 °F 70% 30.35 in 10.0 mi East 4.6 mph - N/A   Mostly Cloudy
6:55 PM 42.1 °F 40.2 °F 32.0 °F 67% 30.34 in 10.0 mi East 3.5 mph - N/A   Overcast
7:15 PM 41.0 °F 39.0 °F 33.1 °F 73% 30.33 in 10.0 mi NE 3.5 mph - N/A   Overcast
7:35 PM 41.4 °F 39.4 °F 32.5 °F 71% 30.33 in 10.0 mi NE 3.5 mph - N/A   Overcast
7:55 PM 41.0 °F 39.0 °F 33.4 °F 74% 30.31 in 10.0 mi NE 3.5 mph - N/A   Overcast
8:15 PM 41.4 °F 38.4 °F 33.3 °F 73% 30.31 in 10.0 mi ENE 4.6 mph - N/A   Overcast
8:35 PM 41.4 °F 38.4 °F 33.6 °F 74% 30.30 in 10.0 mi NE 4.6 mph - N/A   Overcast
8:55 PM 41.0 °F 39.0 °F 32.5 °F 72% 30.29 in 10.0 mi NE 3.5 mph - N/A   Scattered Clouds
9:15 PM 40.3 °F 37.1 °F 32.7 °F 74% 30.29 in 10.0 mi NE 4.6 mph - N/A   Scattered Clouds
9:35 PM 40.8 °F 37.8 °F 32.4 °F 72% 30.27 in 10.0 mi NE 4.6 mph - N/A   Scattered Clouds
9:55 PM 40.6 °F 37.5 °F 32.4 °F 72% 30.26 in 10.0 mi ENE 4.6 mph - N/A   Clear
10:15 PM 40.5 °F 36.5 °F 32.4 °F 73% 30.25 in 10.0 mi ENE 5.8 mph - N/A   Clear
10:35 PM 40.1 °F 36.9 °F 32.4 °F 74% 30.24 in 10.0 mi ENE 4.6 mph - N/A   Clear
10:55 PM 40.1 °F 36.9 °F 32.0 °F 73% 30.22 in 10.0 mi ENE 4.6 mph - N/A   Clear
11:15 PM 40.1 °F - 32.0 °F 73% 30.22 in 10.0 mi Calm Calm - N/A   Clear
11:35 PM 40.1 °F - 32.0 °F 73% 30.20 in 10.0 mi Calm Calm - N/A   Mostly Cloudy
11:55 PM 40.1 °F - 32.2 °F 73% 30.19 in 10.0 mi Calm Calm - N/A   Mostly Cloudy